Last 24 Hours

Squaw-Red Dog 6200'

Hourly Data | America/Los_Angeles
as of 7/18/19 11:44 PM PDT
Date & Time Temp (°F) RH (%) Dew Pt (°F) Wet Bulb (°F) Wind Dir (°) Wind Spd (mph) Wind Gust (mph) Latest Rain (In) New Snow (in) SnowDepth (in) Daily Min Temp (°F) Daily Max Temp (°F) Daily Rain (In)
7/18/19 - 2300 57.0 71 47.8 52.6 WSW | 251 1.2 4.1 0.00 84.3 14 46.2 77.0 0.00
7/18/19 - 2200 59.5 69 49.2 54.3 WSW | 246 3.5 9.4 0.00 82.7 10 46.2 77.0 0.00
7/18/19 - 2100 63.0 62 49.9 56.0 NW | 308 3.8 10.6 0.00 89.2 14 46.2 77.0 0.00
7/18/19 - 2000 65.7 54 48.6 56.1 NW | 320 2.6 7.9 0.00 89.9 - 46.2 77.0 0.00
7/18/19 - 1900 73.3 37 45.8 56.9 NNE | 14 4.4 13.7 0.00 93.1 13 46.2 77.0 0.00
7/18/19 - 1800 73.4 36 44.5 56.3 NNE | 12 10.4 20.4 0.00 94.9 7 46.2 77.0 0.00
7/18/19 - 1700 74.4 34 44.1 56.4 N | 9 8.2 18.3 0.00 93.2 14 46.2 77.0 0.00
7/18/19 - 1600 75.6 32 44.1 56.7 N | 11 8.6 16.9 0.00 93.8 14 46.2 77.0 0.00
7/18/19 - 1500 76.1 26 38.4 54.5 NNE | 15 9.2 19.4 0.00 87.4 15 46.2 76.5 0.00
7/18/19 - 1400 75.4 27 38.8 54.5 NNE | 15 7.5 15.6 0.00 - 14 46.2 75.8 0.00
7/18/19 - 1300 73.2 26 36.5 53.0 NNE | 24 8.7 17.9 0.00 - 14 46.2 74.5 0.00
7/18/19 - 1200 72.6 28 37.7 53.2 NNE | 25 7.6 17.8 0.00 93.1 18 46.2 73.3 0.00
7/18/19 - 1100 71.4 31 39.2 53.5 N | 11 7.4 18.1 0.00 90.4 14 46.2 72.2 0.00
7/18/19 - 1000 69.3 32 38.2 52.4 NNE | 16 4.9 14.0 0.00 88.0 13 46.2 69.9 0.00
7/18/19 - 0900 67.4 42 43.8 54.2 NNE | 17 3.6 9.3 0.00 85.4 13 46.2 68.0 0.00
7/18/19 - 0800 65.2 51 46.6 54.9 NNW | 337 1.3 5.5 0.00 85.2 7 46.2 65.2 0.00
7/18/19 - 0700 53.6 78 46.8 50.6 WSW | 241 1.3 5.2 0.00 83.2 15 46.2 54.4 0.00
7/18/19 - 0600 47.8 91 45.2 47.0 WNW | 299 0.7 3.1 0.00 83.6 10 47.2 54.4 0.00
7/18/19 - 0500 47.7 91 45.2 47.0 W | 259 0.7 4.4 0.00 82.3 14 47.7 54.4 0.00
7/18/19 - 0400 48.3 92 45.9 47.6 WSW | 238 0.9 3.7 0.00 85.4 14 48.0 54.4 0.00
7/18/19 - 0300 49.6 86 45.7 48.1 WSW | 257 0.6 2.9 0.00 83.9 14 49.6 54.4 0.00
7/18/19 - 0200 51.0 85 46.8 49.4 W | 263 0.6 2.3 0.00 83.4 14 50.9 54.4 0.00
7/18/19 - 0100 52.5 84 47.6 50.6 W | 279 0.6 2.4 0.00 84.8 13 52.4 54.4 0.00
7/18/19 - 0000 54.2 81 48.5 51.8 W | 264 0.7 2.0 0.00 83.8 14 44.7 79.1 0.00
7/17/19 - 2300 56.3 77 49.3 53.1 W | 259 0.5 1.6 0.00 81.1 10 44.7 79.1 0.00
Max 76.1 92 49.9 56.9 - 10.4 20.4 0.00 94.9 18 52.4 79.1 0.00
Avg 62.9 57 44.6 52.8 - 4.0 9.9 0.00 87.0 13 - - -
Min 47.7 26 36.5 47.0 - 0.5 1.6 0.00 81.1 7 44.7 54.4 0.00
Total - - - - - - - 0.00 - - - - -